Change the Weather History Date:

Friday, April 11, 2014

  Actual Average Record
Temperature  
Mean Temperature 62 °F 61 °F  
Max Temperature 76 °F 75 °F 87 °F (1948)
Min Temperature 47 °F 48 °F 31 °F (1973)
Degree Days  
Heating Degree Days 3 5  
Month to date heating degree days 54 67  
Since 1 July heating degree days 2779 2471  
Cooling Degree Days 0 2  
Month to date cooling degree days 13 13  
Year to date cooling degree days 22 37  
Growing Degree Days 10 (Base 50)    
Moisture  
Dew Point 51 °F    
Average Humidity 70    
Maximum Humidity 96    
Minimum Humidity 43    
Precipitation  
Precipitation 0.00 in 0.18 in 2.08 in (1980)
Month to date precipitation 7.09 1.85  
Year to date precipitation 22.18 18.00  
Sea Level Pressure  
Sea Level Pressure 30.16 in    
Wind  
Wind Speed 5 mph (SSW)    
Max Wind Speed 15 mph    
Max Gust Speed 20 mph    
Visibility 10 miles    
Events      
T = Trace of Precipitation, MM = Missing Value Source: NWS Daily Summary

Daily Weather History Graph

Daily Weather History Graph

Search for Another Location

Airport or City:

Trip Planner

Search our weather history database for the weather conditions in past years. The results will help you decide how hot, cold, wet, or windy it might be!

Date:

Astronomy

Apr. 11, 2014 Rise Set
Actual Time 6:30 AM CDT 7:21 PM CDT
Civil Twilight 6:05 AM CDT 7:46 PM CDT
Nautical Twilight 5:36 AM CDT 8:16 PM CDT
Astronomical Twilight 5:05 AM CDT 8:46 PM CDT
Moon 4:12 PM CDT (4/11) 4:13 AM CDT (4/11)
Length of Visible Light 13h 41m
Length of Day
12h 51m
Waxing Gibbous, 87% of the Moon is Illuminated
Apr 11
Waxing Gibbous
Apr 15
Full
Apr 22
Last Quarter
Apr 29
New
May 6
First Quarter

Hourly Weather History & Observations

Time (CDT) Temp. Dew Point Humidity Pressure Visibility Wind Dir Wind Speed Gust Speed Precip Events Conditions
12:58 AM 53.1 °F 46.9 °F 80% 30.17 in 10.0 mi South 4.6 mph - N/A   Clear
1:58 AM 52.0 °F 46.9 °F 83% 30.16 in 10.0 mi SSW 4.6 mph - N/A   Clear
2:58 AM 51.1 °F 46.9 °F 86% 30.16 in 10.0 mi Calm Calm - N/A   Clear
3:58 AM 48.9 °F 46.9 °F 93% 30.16 in 10.0 mi Calm Calm - N/A   Clear
4:58 AM 48.9 °F 46.9 °F 93% 30.17 in 10.0 mi Calm Calm - N/A   Clear
5:58 AM 48.0 °F 46.9 °F 96% 30.18 in 10.0 mi Calm Calm - N/A   Clear
6:58 AM 48.0 °F 46.9 °F 96% 30.22 in 8.0 mi Calm Calm - N/A   Mostly Cloudy
7:05 AM 48.2 °F 46.4 °F 93% 30.22 in 8.0 mi Calm Calm - N/A   Mostly Cloudy
7:58 AM 52.0 °F 50.0 °F 93% 30.22 in 10.0 mi SSW 4.6 mph - N/A   Mostly Cloudy
8:58 AM 57.2 °F 53.6 °F 88% 30.23 in 10.0 mi SSW 5.8 mph - N/A   Mostly Cloudy
9:58 AM 63.0 °F 55.0 °F 75% 30.23 in 10.0 mi South 6.9 mph - N/A   Partly Cloudy
10:58 AM 66.0 °F 53.1 °F 63% 30.23 in 10.0 mi SSW 12.7 mph - N/A   Mostly Cloudy
11:58 AM 69.1 °F 54.0 °F 58% 30.22 in 10.0 mi SW 11.5 mph - N/A   Mostly Cloudy
12:58 PM 72.0 °F 52.0 °F 49% 30.19 in 10.0 mi SSW 11.5 mph - N/A   Mostly Cloudy
1:58 PM 73.0 °F 52.0 °F 48% 30.17 in 10.0 mi South 12.7 mph - N/A   Mostly Cloudy
2:58 PM 75.0 °F 51.1 °F 43% 30.13 in 10.0 mi South 9.2 mph 17.3 mph N/A   Clear
3:58 PM 75.0 °F 51.1 °F 43% 30.11 in 10.0 mi SSW 8.1 mph 18.4 mph N/A   Scattered Clouds
4:58 PM 75.9 °F 51.1 °F 42% 30.09 in 10.0 mi SSW 10.4 mph - N/A   Clear
5:58 PM 73.0 °F 52.0 °F 48% 30.09 in 10.0 mi South 8.1 mph - N/A   Mostly Cloudy
6:58 PM 70.0 °F 53.1 °F 55% 30.08 in 9.0 mi SSE 5.8 mph - N/A   Partly Cloudy
7:58 PM 64.9 °F 55.9 °F 73% 30.09 in 10.0 mi Calm Calm - N/A   Clear
8:58 PM 61.0 °F 55.9 °F 83% 30.12 in 9.0 mi Calm Calm - N/A   Mostly Cloudy
9:58 PM 60.1 °F 55.9 °F 86% 30.13 in 8.0 mi Calm Calm - N/A   Scattered Clouds
10:58 PM 59.0 °F 55.0 °F 87% 30.13 in 10.0 mi SSW 6.9 mph - N/A   Clear
11:58 PM 59.0 °F 55.0 °F 87% 30.14 in 10.0 mi SSW 6.9 mph - N/A   Clear